Regional Weather Roundup
Issued by NWS

Home | Current Version | Previous Version | Graphics & Text | Print | Product List | Glossary On
Versions: 1 2 3 4 5 6 7 8 9 10 11 12 13 14 15 16 17 18 19 20 21 22 23 24 25 26 27
000
ASUS45 KCYS 200310
RWRWY

WYOMING REGIONAL WEATHER ROUNDUP
NATIONAL WEATHER SERVICE CHEYENNE WY
800 PM MST MON FEB 19 2018

NOTE:  "FAIR" INDICATES FEW OR NO CLOUDS BELOW 12,000 FEET
WITH NO SIGNIFICANT WEATHER AND/OR OBSTRUCTIONS TO VISIBILITY.

WYZ001-200400-
YELLOWSTONE NATIONAL PARK

CITY           SKY/WX    TMP DP  RH WIND       PRES   REMARKS
LK YELLOWSTONE   N/A     -7 -11  83 CALM      29.56R
W YELLOWSTONE  NOT AVBL

$$
WYZ002>013-054>058-071-098>099-200400-
NORTHERN WYOMING

CITY           SKY/WX    TMP DP  RH WIND       PRES   REMARKS
JACKSON        FAIR       9   2  73 E8        29.57R WCI  -3
CODY           FLURRIES  -5 -10  79 N7        29.84R WCI -19
GREYBULL       CLOUDY     0  -4  83 NW8       29.93R FOG     WCI -14
WORLAND        CLOUDY    -3  -6  87 CALM      29.91S
SHERIDAN       CLOUDY    -2  -7  79 W10       29.94R WCI -19
BUFFALO        FAIR      -6 -12  75 NW14      29.82R WCI -26
GILLETTE       LGT SNOW  -4  -9  79 N13       29.82F WCI -23
HULETT         LGT SNOW  -2  -8  78 MISG      29.86F
NEWCASTLE      FLURRIES   0  -4  85 CALM      29.86R

$$
WYZ014>020-022>026-101>103-200400-
CENTRAL WYOMING

CITY           SKY/WX    TMP DP  RH WIND       PRES   REMARKS
BIG PINEY      LGT SNOW   2  -2  83 S8        29.58R FOG     WCI -12
PINEDALE       LGT SNOW   1  -4  78 SE6       29.59R WCI -10
DUBOIS         NOT AVBL
LANDER         CLOUDY    -2  -6  83 E5        29.73R WCI -12
RIVERTON       CLOUDY    -2  -8  76 E5        29.75R WCI -12
CASPER         LGT SNOW  -4  -8  83 N8        29.77R FOG     WCI -19
DOUGLAS        CLOUDY    -2  -7  79 CALM      29.80R

$$
WYZ021-027>030-104>119-200400-
SOUTHERN WYOMING

CITY           SKY/WX    TMP DP  RH WIND       PRES   REMARKS
EVANSTON       CLOUDY    10   6  84 W10       29.57R WCI  -4
FORT BRIDGER   LGT SNOW   1   1 100 CALM      29.59
ROCK SPRINGS   CLOUDY    -2  -9  72 E9        29.62R HAZE    WCI -18
DIXON          LGT SNOW   3  -3  76 W9        29.64R WCI -12
RAWLINS        CLOUDY    -5 -12  72 NW3       29.60R
SARATOGA       LGT SNOW  -4  -8  84 NW5       29.56S WCI -15
LARAMIE        MIX PCPN  -7 -10  87 N17       29.48S FOG     WCI -30
CHEYENNE       LGT SNOW  -1  -5  82 NE10      29.61R VSB 1   WCI -17
TORRINGTON     LGT SNOW   0  -6  76 N9        29.83R WCI -15
PINE BLUFFS    CLOUDY     1  -4  78 MISG      29.73R VSB 1/4

$$




USA.gov is the U.S. government's official web portal to all federal, state and local government web resources and services.